THORAD AGENA D DEB, 4683

Orbit data source: Space-Track

THORAD AGENA D DEB, 4683 is space debris in SSO originally from a launch on Wed, 08 Apr 1970 UTC launched from the Air Force Western Test Range (AFWTR). Debris objects in space refer to the collection of defunct objects orbiting the Earth. Examples of debris include non-operational satellites, rocket bodies, and fragments generated from explosions, collisions, or faulty payload assembly.

Loading next visibility...
Identifier
4683, 1970-025BG
Orbit
SSO
Country
Flag of USUS
Related business
Manufacturer
Unknown
Mission
Spacecraft
Bus & Motor
Unknown
Mass
Unknown
Launch date (UTC)
1970-04-08 (56 years ago)
Launch vehicle
Unknown
Launch site
Air Force Western Test Range (AFWTR)
Object type
Payload
Rocket body
Debris
Shape & HBR
Unknown shape, 0.1 m
Radar Cross Section
Medium (>0.1 m² and <1 m²)

Expand to show TLE details & history
Last TLE update: 1 day ago

TLE from 1 day ago
0 THORAD AGENA D DEB
1 04683U 70025BG  26255.08791039  .00000194  00000-0  45838-3 0  9997
2 04683 100.4090 298.1478 0121291 246.3796 140.7780 13.35050966739081
Epoch: 2026-09-12T02:06Z
TLE epoch observation values (Epoch: 2026-09-12T02:06:35.457Z)
Latitude
27.56519°
Longitude
-90.07668°
Altitude
1,201.973 km
Speed
7.221 km/s
True Right ascension
19h 30m 41s
True Declination
27° 25' 57"
Sunlit
Object was in daylight at epoch
Visualization orbit readout
Latitude
Unknown
Longitude
Unknown
Altitude
Unknown
Speed
Unknown
Apparent Right ascension
Unknown
Apparent Declination
Unknown
Sunlit
N/A
Visualization observer readout
Local Sidereal Time
21:20:57
Azimuth
Unknown
Elevation
Unknown
Doppler factor
Unknown
Orbital elements
Apogee altitude
1,216.138 km
Perigee altitude
1,034.122 km
Semi-major axis
7,503.267 km
Eccentricity
0.01213
Inclination
100.409°
RAAN
298.1478°
Arg. of periapsis
246.3796°
True anomaly
141.64663°
Mean anomaly
140.778°
Eccentric anomaly
141.21333°
Mean motion
3.33939 °/min
Orbital period
107.8 mins
BSTAR
0.00045838
Loading maneuver chart data...
Computing Atmospheric mass density...
Loading historical data...
Loading historical data...
Loading historical data...
Loading historical data...
Loading historical data...
Loading historical data...
Loading historical data...

Documentation

Showing up to 5 results
|